Weather Roundup
Issued by NWS Chicago, IL

Home | Current Version | Previous Version | Text Only | Print | Product List | Glossary Off
Versions: 1 2 3 4 5 6 7 8 9 10 11 12 13 14 15 16 17 18 19 20 21 22 23 24 25 26 27 28 29 30 31 32 33 34 35 36 37 38 39 40 41 42 43 44 45 46 47 48 49 50

000
NZUS59 KLOT 210110
HRRLOT

CHICAGO AREA WEATHER ROUNDUP
NATIONAL WEATHER SERVICE CHICAGO/ROMEOVILLE IL
700 PM CST SAT DEC 20 2014

NOTE: "FAIR" INDICATES FEW OR NO CLOUDS BELOW 12,000 FEET WITH NO
SIGNIFICANT WEATHER AND/OR OBSTRUCTIONS TO VISIBILITY.

* THESE STATIONS ARE NOT UNDER NWS QUALITY CONTROL. THEY ALSO MAY NOT
  REPORT WEATHER SUCH AS PRECIPITATION OR FOG.

ILZ005-006-012>014-019>023-210200-
NORTHEAST ILLINOIS

CITY           SKY/WX    TMP DP  RH WIND       PRES   REMARKS
OHARE          CLOUDY    31  25  78 S6        30.25S WCI  25
MIDWAY         CLOUDY    34  26  72 S5        30.27S WCI  30
AURORA         CLOUDY    32  26  78 SE5       30.26R WCI  27
LANSING*       CLOUDY    32  27  81 S3        30.27S
JOLIET*        CLOUDY    32  26  80 CALM      30.27S
WAUKEGAN       CLOUDY    31  24  75 CALM      30.25S
DUPAGE AIRPORT CLOUDY    31  26  82 S3        30.25S
WHEELING       CLOUDY    33  24  69 CALM      30.27F
KANKAKEE*      CLOUDY    32  28  84 S3        30.29R
MORRIS*        CLOUDY    32  30  92 SE3       30.26S
LEWIS AIRPORT* CLOUDY    32  27  80 S5        30.26S WCI  27
NORTHERLY IS     N/A     33  25  72 S5          N/A  WCI  29
$$

WIZ051-052-058>065-066-070>072-210200-
SOUTHEAST WISCONSIN

CITY           SKY/WX    TMP DP  RH WIND       PRES   REMARKS
MILWAUKEE      FLURRIES  31  23  72 S3        30.25S
KENOSHA*       CLOUDY    32  25  75 SW3       30.25S
RACINE*        CLOUDY    31  24  75 CALM      30.27R
BURLINGTON     CLOUDY    29  26  88 CALM      30.25S
WAUKESHA       CLOUDY    28  25  86 SE3       30.25R
WEST BEND      FLURRIES  30  25  80 CALM      30.24R
$$

INZ001>003-010>013-019-020-210200-
NORTHWEST INDIANA

CITY           SKY/WX    TMP DP  RH WIND       PRES   REMARKS
GARY*          CLOUDY    34  23  64 CALM      30.28S
MICHIGAN CITY* NOT AVBL
RENSSELAER*    NOT AVBL
VALPARAISO     CLOUDY    31  25  78 SE5       30.27S WCI  26
$$

LMZ740>746-210200-
SOUTHERN LAKE MICHIGAN

STATION/POSITION TIME  SKY/WX   TEMP WIND        PRES    VSBY
                                AIR  DIR/SP/G
                 (UTC)          (F)  (DEG/KT/KT) (MB)    (MI)
HARRISON CRIB    0100            33  190/  8/  9   N/A
BURNHAM HARBOR   0100            33  200/  5/  8   N/A
CALUMET HARBOR   0100            33  170/  3/  4 1023.7R
BURNS HARBOR     NOT AVBL
MICHIGAN CITY    NOT AVBL
$$

ABBREVIATIONS USED IN REMARKS
   TC - TEMPERATURE IN CELSIUS
  WCI - WIND CHILL INDEX
   HX - HEAT INDEX
  VSB - VISIBILITY
$$



USA.gov is the U.S. government's official web portal to all federal, state and local government web resources and services.